When you browse on this site, cookies collect data to enhance your experience and personalize the content and advertising you see.
Visit our Privacy Policy to learn more. By continuing to use the site, you agree to this use of cookies and data.
  • în România
  • Lista ţărilor
  • Pe 7 zile
  • Temperatura apei
  • Meteo pe hartă
  • Widget-uri
  • user-avatar
    Intrare

    Meteo pe oră la Inverclyde

    Astăzi, 25 Februarie, Marţi

    Timp Temperatura Precipitaţii Vânt Presiune Umiditate
    00:00 +2°C° 0 mm 1 m/s 744 mmHg 98%
    01:00 +2°C° 0 mm 1 m/s 744 mmHg 97%
    02:00 -1°C° 0 mm 2 m/s 743 mmHg 95%
    03:00 -1°C° 0 mm 2 m/s 743 mmHg 94%
    04:00 -1°C° 0 mm 2 m/s 742 mmHg 94%
    05:00 -1°C° 0 mm 2 m/s 742 mmHg 93%
    06:00 -1°C° 0 mm 2 m/s 742 mmHg 92%
    07:00 -1°C° 0 mm 2 m/s 741 mmHg 91%
    08:00 +1°C° 0 mm 2 m/s 741 mmHg 91%
    09:00 +2°C° 0 mm 2 m/s 741 mmHg 90%
    10:00 +2°C° 0 mm 3 m/s 740 mmHg 87%
    11:00 +2°C° 0 mm 3 m/s 740 mmHg 85%
    12:00 +3°C° 0 mm 3 m/s 740 mmHg 81%
    13:00 +3°C° 0 mm 3 m/s 740 mmHg 81%
    14:00 +3°C° 0 mm 3 m/s 739 mmHg 80%
    15:00 +3°C° 0 mm 3 m/s 739 mmHg 80%
    16:00 +2°C° 0 mm 3 m/s 739 mmHg 83%
    17:00 +1°C° 0 mm 3 m/s 739 mmHg 86%
    18:00 +1°C° 0 mm 2 m/s 739 mmHg 90%
    19:00 +1°C° 0 mm 2 m/s 739 mmHg 90%
    20:00 -1°C° 0 mm 2 m/s 740 mmHg 91%
    21:00 -1°C° 0 mm 3 m/s 740 mmHg 91%
    22:00 -1°C° 0 mm 3 m/s 740 mmHg 91%
    23:00 -2°C° 0 mm 3 m/s 740 mmHg 91%

    Mâine, 26 Februarie, Miercuri

    Timp Temperatura Precipitaţii Vânt Presiune Umiditate
    00:00 -2°C° 0 mm 3 m/s 741 mmHg 91%
    01:00 -2°C° 0 mm 3 m/s 741 mmHg 91%
    02:00 -2°C° 0 mm 3 m/s 741 mmHg 90%
    03:00 -2°C° 0 mm 3 m/s 741 mmHg 90%
    04:00 -1°C° 0 mm 3 m/s 742 mmHg 89%
    05:00 -1°C° 0 mm 3 m/s 742 mmHg 89%
    06:00 -2°C° 0 mm 4 m/s 743 mmHg 88%
    07:00 -2°C° 0.1 mm 4 m/s 743 mmHg 88%
    08:00 -1°C° 0.1 mm 4 m/s 744 mmHg 87%
    09:00 0°C° 0.1 mm 4 m/s 744 mmHg 86%
    10:00 0°C° 0.5 mm 5 m/s 745 mmHg 81%
    11:00 +1°C° 0.5 mm 5 m/s 745 mmHg 76%
    12:00 +1°C° 0.5 mm 6 m/s 746 mmHg 71%
    13:00 +1°C° 0 mm 6 m/s 746 mmHg 70%
    14:00 +1°C° 0 mm 6 m/s 746 mmHg 69%
    15:00 +1°C° 0 mm 6 m/s 746 mmHg 68%
    16:00 0°C° 0 mm 5 m/s 745 mmHg 75%
    17:00 -1°C° 0 mm 4 m/s 745 mmHg 82%
    18:00 -2°C° 0 mm 4 m/s 745 mmHg 89%
    19:00 -2°C° 0.1 mm 4 m/s 745 mmHg 90%
    20:00 -2°C° 0.1 mm 3 m/s 744 mmHg 91%
    21:00 -2°C° 0.1 mm 3 m/s 744 mmHg 93%
    22:00 -2°C° 0.1 mm 3 m/s 744 mmHg 92%
    23:00 -2°C° 0.1 mm 3 m/s 743 mmHg 92%

    Poimâine, 27 Februarie, Joi

    Timp Temperatura Precipitaţii Vânt Presiune Umiditate
    00:00 -2°C° 0.1 mm 3 m/s 743 mmHg 91%
    01:00 -3°C° 0 mm 4 m/s 742 mmHg 91%
    02:00 -3°C° 0 mm 4 m/s 742 mmHg 90%
    03:00 -3°C° 0 mm 4 m/s 741 mmHg 89%
    04:00 -3°C° 0 mm 4 m/s 741 mmHg 89%
    05:00 -3°C° 0 mm 4 m/s 741 mmHg 89%
    06:00 -3°C° 0 mm 4 m/s 741 mmHg 89%
    07:00 -3°C° 0 mm 4 m/s 741 mmHg 87%
    08:00 -2°C° 0 mm 4 m/s 741 mmHg 86%
    09:00 -2°C° 0 mm 4 m/s 741 mmHg 84%
    10:00 0°C° 0 mm 5 m/s 741 mmHg 80%
    11:00 +1°C° 0 mm 5 m/s 742 mmHg 76%
    12:00 +2°C° 0 mm 6 m/s 742 mmHg 72%
    13:00 +2°C° 0.1 mm 6 m/s 742 mmHg 71%
    14:00 +2°C° 0.1 mm 7 m/s 743 mmHg 70%
    15:00 +2°C° 0.1 mm 7 m/s 743 mmHg 70%
    16:00 0°C° 0.1 mm 7 m/s 744 mmHg 74%
    17:00 -1°C° 0.1 mm 6 m/s 744 mmHg 78%
    18:00 0°C° 0.1 mm 5 m/s 745 mmHg 82%
    19:00 -1°C° 0 mm 5 m/s 746 mmHg 82%
    20:00 -1°C° 0 mm 5 m/s 747 mmHg 82%
    21:00 -2°C° 0 mm 6 m/s 747 mmHg 83%
    22:00 -1°C° 0 mm 5 m/s 748 mmHg 83%
    23:00 -1°C° 0 mm 5 m/s 749 mmHg 84%

    28 Februarie, Vineri

    Timp Temperatura Precipitaţii Vânt Presiune Umiditate
    00:00 -1°C° 0 mm 5 m/s 749 mmHg 84%
    01:00 -1°C° 0 mm 5 m/s 750 mmHg 86%
    02:00 -2°C° 0 mm 4 m/s 750 mmHg 87%
    03:00 -1°C° 0 mm 3 m/s 750 mmHg 88%
    04:00 -1°C° 0 mm 3 m/s 750 mmHg 88%
    05:00 -1°C° 0 mm 2 m/s 750 mmHg 88%
    06:00 -1°C° 0 mm 2 m/s 750 mmHg 87%
    07:00 +1°C° 0 mm 2 m/s 750 mmHg 87%
    08:00 +2°C° 0 mm 1 m/s 750 mmHg 86%
    09:00 +2°C° 0 mm 1 m/s 750 mmHg 85%
    10:00 +3°C° 0 mm 1 m/s 750 mmHg 83%
    11:00 +4°C° 0 mm 1 m/s 750 mmHg 81%
    12:00 +4°C° 0 mm 2 m/s 750 mmHg 79%
    13:00 +4°C° 0 mm 2 m/s 749 mmHg 78%
    14:00 +4°C° 0 mm 2 m/s 749 mmHg 78%
    15:00 +5°C° 0 mm 2 m/s 748 mmHg 77%
    16:00 +4°C° 0 mm 2 m/s 747 mmHg 81%
    17:00 +2°C° 0 mm 2 m/s 747 mmHg 84%
    18:00 +1°C° 0 mm 2 m/s 746 mmHg 88%
    19:00 +1°C° 0 mm 3 m/s 745 mmHg 87%
    20:00 0°C° 0 mm 4 m/s 745 mmHg 87%
    21:00 0°C° 0 mm 4 m/s 744 mmHg 86%
    22:00 0°C° 0 mm 5 m/s 743 mmHg 86%
    23:00 0°C° 0 mm 5 m/s 741 mmHg 86%

    29 Februarie, Sâmbătă

    Timp Temperatura Precipitaţii Vânt Presiune Umiditate
    00:00 0°C° 0 mm 5 m/s 740 mmHg 86%
    01:00 +1°C° 0.4 mm 6 m/s 738 mmHg 88%
    02:00 0°C° 0.4 mm 7 m/s 736 mmHg 90%
    03:00 +2°C° 0.4 mm 7 m/s 734 mmHg 92%
    04:00 +2°C° 0.6 mm 7 m/s 732 mmHg 92%
    05:00 +2°C° 0.6 mm 8 m/s 730 mmHg 92%
    06:00 +2°C° 0.6 mm 8 m/s 728 mmHg 92%
    07:00 +3°C° 0.7 mm 7 m/s 727 mmHg 93%
    08:00 +5°C° 0.7 mm 5 m/s 726 mmHg 93%
    09:00 +5°C° 0.7 mm 4 m/s 725 mmHg 94%
    10:00 +3°C° 0.4 mm 5 m/s 725 mmHg 93%
    11:00 +3°C° 0.4 mm 5 m/s 725 mmHg 92%
    12:00 +2°C° 0.4 mm 6 m/s 725 mmHg 90%
    13:00 +2°C° 0 mm 5 m/s 724 mmHg 86%
    14:00 +2°C° 0 mm 5 m/s 724 mmHg 81%
    15:00 +2°C° 0 mm 5 m/s 724 mmHg 76%
    16:00 +1°C° 0 mm 5 m/s 724 mmHg 78%
    17:00 0°C° 0 mm 5 m/s 724 mmHg 81%
    18:00 -1°C° 0 mm 5 m/s 724 mmHg 84%
    19:00 -1°C° 0 mm 5 m/s 724 mmHg 83%
    20:00 -1°C° 0 mm 6 m/s 724 mmHg 83%
    21:00 -1°C° 0 mm 6 m/s 724 mmHg 83%
    22:00 -1°C° 0 mm 6 m/s 724 mmHg 83%
    23:00 0°C° 0 mm 5 m/s 724 mmHg 83%

    1 Martie, Duminică

    Timp Temperatura Precipitaţii Vânt Presiune Umiditate
    00:00 0°C° 0 mm 5 m/s 724 mmHg 82%
    01:00 -1°C° 0 mm 5 m/s 724 mmHg 83%
    02:00 -1°C° 0 mm 5 m/s 723 mmHg 84%
    03:00 -1°C° 0 mm 5 m/s 723 mmHg 85%
    04:00 -2°C° 0 mm 6 m/s 723 mmHg 83%
    05:00 -1°C° 0 mm 6 m/s 722 mmHg 81%
    06:00 -1°C° 0 mm 6 m/s 722 mmHg 79%
    07:00 0°C° 0.2 mm 5 m/s 722 mmHg 82%
    08:00 +1°C° 0.2 mm 4 m/s 722 mmHg 84%
    09:00 +2°C° 0.2 mm 3 m/s 721 mmHg 86%
    10:00 +3°C° 0.3 mm 4 m/s 722 mmHg 86%
    11:00 +4°C° 0.3 mm 4 m/s 722 mmHg 86%
    12:00 +5°C° 0.3 mm 5 m/s 722 mmHg 86%
    13:00 +3°C° 0.4 mm 5 m/s 723 mmHg 87%
    14:00 +3°C° 0.4 mm 5 m/s 723 mmHg 89%
    15:00 +3°C° 0.4 mm 5 m/s 724 mmHg 91%
    16:00 +2°C° 0.5 mm 5 m/s 725 mmHg 91%
    17:00 +2°C° 0.5 mm 6 m/s 726 mmHg 91%
    18:00 +1°C° 0.5 mm 6 m/s 727 mmHg 91%
    19:00 +1°C° 0.4 mm 6 m/s 728 mmHg 92%
    20:00 +1°C° 0.4 mm 6 m/s 729 mmHg 92%
    21:00 +1°C° 0.4 mm 5 m/s 730 mmHg 93%
    22:00 +1°C° 0.2 mm 5 m/s 730 mmHg 91%
    23:00 -1°C° 0.2 mm 6 m/s 731 mmHg 89%
    Arată mai mult